Change the Weather History Date:

Thursday, April 10, 2014

  Actual Average Record
Temperature  
Mean Temperature 49 °F 42 °F  
Max Temperature 62 °F 56 °F 72 °F (2006)
Min Temperature 36 °F 28 °F 4 °F (2013)
Degree Days  
Heating Degree Days 16 23  
Month to date heating degree days 225 239  
Since 1 July heating degree days 6707 6557  
Cooling Degree Days 0 0  
Month to date cooling degree days 0 0  
Year to date cooling degree days 0 0  
Moisture  
Dew Point 34 °F    
Average Humidity 57    
Maximum Humidity 85    
Minimum Humidity 29    
Precipitation  
Precipitation T in 0.04 in 0.28 in (2008)
Month to date precipitation 0.04 0.34  
Year to date precipitation 2.28 1.98  
Sea Level Pressure  
Sea Level Pressure 29.96 in    
Wind  
Wind Speed 7 mph (ESE)    
Max Wind Speed 22 mph    
Max Gust Speed 27 mph    
Visibility 10 miles    
Events      
T = Trace of Precipitation, MM = Missing Value Source: NWS Daily Summary

Daily Weather History Graph

Daily Weather History Graph

Search for Another Location

Airport or City:

Trip Planner

Search our weather history database for the weather conditions in past years. The results will help you decide how hot, cold, wet, or windy it might be!

Date:

Astronomy

Apr. 10, 2014 Rise Set
Actual Time 6:28 AM MDT 7:38 PM MDT
Civil Twilight 5:59 AM MDT 8:07 PM MDT
Nautical Twilight 5:24 AM MDT 8:42 PM MDT
Astronomical Twilight 4:47 AM MDT 9:18 PM MDT
Moon 3:18 PM MDT (4/10) 3:58 AM MDT (4/10)
Length of Visible Light 14h 08m
Length of Day
13h 09m
Waxing Gibbous, 80% of the Moon is Illuminated
Apr 10
Waxing Gibbous
Apr 15
Full
Apr 22
Last Quarter
Apr 29
New
May 6
First Quarter

Hourly Weather History & Observations

Time (MDT) Temp. Windchill Dew Point Humidity Pressure Visibility Wind Dir Wind Speed Gust Speed Precip Events Conditions
12:53 AM 43.0 °F 41.3 °F 35.1 °F 74% 29.88 in 10.0 mi SE 3.5 mph - N/A   Overcast
1:53 AM 42.1 °F 39.2 °F 36.0 °F 79% 29.87 in 10.0 mi SE 4.6 mph - N/A   Overcast
2:53 AM 43.0 °F 41.3 °F 36.0 °F 76% 29.86 in 10.0 mi East 3.5 mph - N/A   Overcast
3:53 AM 44.1 °F 40.8 °F 36.0 °F 73% 29.87 in 10.0 mi NE 5.8 mph - N/A   Overcast
4:24 AM 42.1 °F 33.6 °F 34.0 °F 73% 30.01 in 10.0 mi ENE 18.4 mph 24.2 mph N/A   Overcast
4:53 AM 39.9 °F 31.8 °F 33.1 °F 77% 29.92 in 10.0 mi ENE 15.0 mph - N/A   Overcast
5:41 AM 37.0 °F 30.4 °F 34.0 °F 89% 30.04 in 10.0 mi NE 9.2 mph - 0.00 in   Overcast
5:53 AM 37.0 °F 33.3 °F 33.1 °F 86% 29.95 in 10.0 mi ENE 4.6 mph - 0.00 in   Overcast
6:02 AM 37.0 °F - 34.0 °F 89% 30.03 in 10.0 mi Calm Calm - N/A   Overcast
6:13 AM 37.9 °F 35.5 °F 34.0 °F 86% 30.04 in 10.0 mi NW 3.5 mph - N/A   Overcast
6:53 AM 37.9 °F 33.5 °F 34.0 °F 86% 29.98 in 10.0 mi South 5.8 mph - N/A   Overcast
7:11 AM 37.9 °F 33.5 °F 34.0 °F 86% 30.05 in 10.0 mi South 5.8 mph - N/A   Overcast
8:21 AM 39.0 °F 34.0 °F 34.0 °F 82% 30.06 in 10.0 mi South 6.9 mph - N/A   Overcast
8:53 AM 39.9 °F 35.1 °F 35.1 °F 83% 30.02 in 10.0 mi SSE 6.9 mph - N/A   Overcast
9:00 AM 39.9 °F 33.9 °F 35.1 °F 83% 30.05 in 10.0 mi South 9.2 mph - N/A   Overcast
9:16 AM 41.0 °F 35.2 °F 35.1 °F 79% 30.04 in 10.0 mi SSE 9.2 mph - N/A   Overcast
9:53 AM 42.1 °F 36.6 °F 35.1 °F 76% 30.02 in 10.0 mi SSE 9.2 mph - N/A   Overcast
10:15 AM 45.0 °F 39.7 °F 36.0 °F 71% 30.04 in 10.0 mi SSE 10.4 mph - N/A   Mostly Cloudy
10:53 AM 46.9 °F - 35.1 °F 63% 29.99 in 10.0 mi SSE 12.7 mph - N/A   Clear
11:53 AM 52.0 °F - 37.0 °F 57% 29.95 in 10.0 mi SE 10.4 mph - N/A   Clear
12:53 PM 52.0 °F - 36.0 °F 54% 29.93 in 10.0 mi East 5.8 mph - N/A   Clear
1:53 PM 54.0 °F - 36.0 °F 51% 29.93 in 10.0 mi Variable 3.5 mph - N/A   Clear
2:53 PM 57.0 °F - 36.0 °F 45% 29.89 in 10.0 mi Variable 4.6 mph - N/A   Clear
3:53 PM 61.0 °F - 30.0 °F 31% 29.85 in 10.0 mi WNW 12.7 mph 19.6 mph N/A   Partly Cloudy
4:53 PM 60.1 °F - 28.9 °F 31% 29.86 in 10.0 mi NNW 11.5 mph - N/A   Overcast
5:53 PM 61.0 °F - 28.9 °F 30% 29.87 in 10.0 mi NNW 15.0 mph - N/A   Mostly Cloudy
6:53 PM 55.0 °F - 33.1 °F 43% 29.89 in 10.0 mi NE 12.7 mph - N/A   Clear
7:53 PM 50.0 °F - 35.1 °F 57% 29.94 in 10.0 mi ENE 6.9 mph - N/A   Clear
8:53 PM 45.0 °F - 36.0 °F 71% 29.98 in 10.0 mi Calm Calm - N/A   Clear
9:53 PM 41.0 °F - 35.1 °F 79% 30.01 in 10.0 mi Calm Calm - N/A   Clear
10:53 PM 39.9 °F 35.1 °F 35.1 °F 83% 30.00 in 10.0 mi SSE 6.9 mph - N/A   Clear
11:53 PM 41.0 °F 35.8 °F 36.0 °F 82% 29.98 in 10.0 mi SSE 8.1 mph - N/A   Clear